When you browse on this site, cookies collect data to enhance your experience and personalize the content and advertising you see.
Visit our Privacy Policy to learn more. By continuing to use the site, you agree to this use of cookies and data.
  • In Österreich
  • Länderverzeichnis
  • Für 7 Tage
  • Wassertemperatur
  • Satellitenkarten
  • Wetterkarte
  • News
  • Widgets
  • user-avatar
    Anmelden

    Stündliche Wetter Saidpur

    Heute, 25 Juni, Dienstag

    Zeit Temperatur Niederschläge Wind Luftdruck Luftfeuchtigkeit
    00:00 +35°C° 0 mm 2 m/S 749 mmHg 60%
    01:00 +35°C° 0 mm 3 m/S 749 mmHg 62%
    02:00 +35°C° 0 mm 3 m/S 749 mmHg 64%
    03:00 +34°C° 0 mm 3 m/S 748 mmHg 66%
    04:00 +34°C° 0.6 mm 4 m/S 748 mmHg 69%
    05:00 +34°C° 0.6 mm 4 m/S 749 mmHg 71%
    06:00 +33°C° 0.6 mm 5 m/S 749 mmHg 73%
    07:00 +34°C° 0.7 mm 4 m/S 749 mmHg 70%
    08:00 +35°C° 0.7 mm 4 m/S 749 mmHg 67%
    09:00 +36°C° 0.7 mm 4 m/S 749 mmHg 64%
    10:00 +37°C° 0.8 mm 3 m/S 749 mmHg 58%
    11:00 +39°C° 0.8 mm 2 m/S 749 mmHg 52%
    12:00 +40°C° 0.8 mm 2 m/S 748 mmHg 46%
    13:00 +40°C° 0 mm 2 m/S 748 mmHg 45%
    14:00 +41°C° 0 mm 2 m/S 747 mmHg 44%
    15:00 +41°C° 0 mm 2 m/S 746 mmHg 43%
    16:00 +40°C° 0 mm 2 m/S 746 mmHg 45%
    17:00 +39°C° 0 mm 2 m/S 746 mmHg 48%
    18:00 +39°C° 0 mm 1 m/S 745 mmHg 50%
    19:00 +38°C° 0 mm 2 m/S 746 mmHg 52%
    20:00 +37°C° 0 mm 2 m/S 746 mmHg 53%
    21:00 +37°C° 0 mm 3 m/S 747 mmHg 55%
    22:00 +37°C° 0 mm 3 m/S 747 mmHg 55%
    23:00 +36°C° 0 mm 3 m/S 747 mmHg 55%

    Morgen, 26 Juni, Mittwoch

    Zeit Temperatur Niederschläge Wind Luftdruck Luftfeuchtigkeit
    00:00 +36°C° 0 mm 4 m/S 747 mmHg 55%
    01:00 +36°C° 0 mm 4 m/S 746 mmHg 57%
    02:00 +35°C° 0 mm 5 m/S 746 mmHg 60%
    03:00 +35°C° 0 mm 5 m/S 746 mmHg 62%
    04:00 +34°C° 0 mm 5 m/S 746 mmHg 63%
    05:00 +34°C° 0 mm 5 m/S 746 mmHg 64%
    06:00 +34°C° 0 mm 4 m/S 746 mmHg 65%
    07:00 +35°C° 0 mm 4 m/S 746 mmHg 61%
    08:00 +36°C° 0 mm 4 m/S 747 mmHg 58%
    09:00 +37°C° 0 mm 4 m/S 747 mmHg 54%
    10:00 +40°C° 0 mm 4 m/S 747 mmHg 47%
    11:00 +42°C° 0 mm 4 m/S 746 mmHg 40%
    12:00 +45°C° 0 mm 4 m/S 746 mmHg 33%
    13:00 +44°C° 0 mm 4 m/S 745 mmHg 35%
    14:00 +43°C° 0 mm 3 m/S 745 mmHg 37%
    15:00 +42°C° 0 mm 3 m/S 744 mmHg 39%
    16:00 +42°C° 0 mm 3 m/S 744 mmHg 41%
    17:00 +40°C° 0 mm 2 m/S 743 mmHg 43%
    18:00 +40°C° 0 mm 2 m/S 743 mmHg 44%
    19:00 +38°C° 0 mm 2 m/S 744 mmHg 49%
    20:00 +37°C° 0 mm 3 m/S 744 mmHg 54%
    21:00 +36°C° 0 mm 3 m/S 745 mmHg 58%
    22:00 +35°C° 0 mm 4 m/S 745 mmHg 60%
    23:00 +35°C° 0 mm 5 m/S 745 mmHg 61%

    übermorgen, 27 Juni, Donnerstag

    Zeit Temperatur Niederschläge Wind Luftdruck Luftfeuchtigkeit
    00:00 +34°C° 0 mm 5 m/S 745 mmHg 63%
    01:00 +34°C° 0.2 mm 6 m/S 744 mmHg 65%
    02:00 +34°C° 0.2 mm 6 m/S 744 mmHg 67%
    03:00 +34°C° 0.2 mm 7 m/S 743 mmHg 70%
    04:00 +34°C° 0.1 mm 6 m/S 743 mmHg 70%
    05:00 +34°C° 0.1 mm 5 m/S 743 mmHg 70%
    06:00 +33°C° 0.1 mm 5 m/S 743 mmHg 70%
    07:00 +35°C° 0.1 mm 5 m/S 744 mmHg 64%
    08:00 +37°C° 0.1 mm 5 m/S 744 mmHg 58%
    09:00 +39°C° 0.1 mm 5 m/S 745 mmHg 52%
    10:00 +41°C° 0 mm 5 m/S 744 mmHg 47%
    11:00 +42°C° 0 mm 4 m/S 744 mmHg 41%
    12:00 +44°C° 0 mm 3 m/S 744 mmHg 36%
    13:00 +44°C° 0 mm 3 m/S 743 mmHg 36%
    14:00 +43°C° 0 mm 3 m/S 742 mmHg 36%
    15:00 +42°C° 0 mm 2 m/S 741 mmHg 36%
    16:00 +42°C° 0.1 mm 3 m/S 741 mmHg 42%
    17:00 +39°C° 0.1 mm 3 m/S 741 mmHg 48%
    18:00 +38°C° 0.1 mm 3 m/S 741 mmHg 54%
    19:00 +37°C° 0.1 mm 4 m/S 741 mmHg 58%
    20:00 +35°C° 0.1 mm 5 m/S 742 mmHg 62%
    21:00 +34°C° 0.1 mm 6 m/S 743 mmHg 66%
    22:00 +34°C° 0.1 mm 6 m/S 743 mmHg 65%
    23:00 +34°C° 0.1 mm 6 m/S 743 mmHg 65%

    28 Juni, Freitag

    Zeit Temperatur Niederschläge Wind Luftdruck Luftfeuchtigkeit
    00:00 +34°C° 0.1 mm 6 m/S 743 mmHg 65%
    01:00 +33°C° 0 mm 5 m/S 743 mmHg 68%
    02:00 +33°C° 0 mm 4 m/S 742 mmHg 71%
    03:00 +33°C° 0 mm 3 m/S 742 mmHg 74%
    04:00 +33°C° 0 mm 3 m/S 742 mmHg 75%
    05:00 +33°C° 0 mm 3 m/S 742 mmHg 76%
    06:00 +32°C° 0 mm 4 m/S 742 mmHg 77%
    07:00 +34°C° 0 mm 4 m/S 743 mmHg 69%
    08:00 +36°C° 0 mm 4 m/S 743 mmHg 61%
    09:00 +38°C° 0 mm 4 m/S 743 mmHg 53%
    10:00 +40°C° 0 mm 3 m/S 743 mmHg 47%
    11:00 +42°C° 0 mm 3 m/S 743 mmHg 41%
    12:00 +43°C° 0 mm 2 m/S 743 mmHg 35%
    13:00 +45°C° 0 mm 2 m/S 742 mmHg 32%
    14:00 +46°C° 0 mm 3 m/S 742 mmHg 29%
    15:00 +47°C° 0 mm 3 m/S 741 mmHg 26%
    16:00 +44°C° 0 mm 4 m/S 741 mmHg 36%
    17:00 +42°C° 0 mm 6 m/S 741 mmHg 45%
    18:00 +40°C° 0 mm 7 m/S 741 mmHg 54%
    19:00 +39°C° 0 mm 7 m/S 741 mmHg 60%
    20:00 +37°C° 0 mm 8 m/S 742 mmHg 65%
    21:00 +35°C° 0 mm 8 m/S 743 mmHg 71%
    22:00 +35°C° 0.1 mm 8 m/S 743 mmHg 70%
    23:00 +35°C° 0.1 mm 8 m/S 743 mmHg 68%

    29 Juni, Samstag

    Zeit Temperatur Niederschläge Wind Luftdruck Luftfeuchtigkeit
    00:00 +35°C° 0.1 mm 8 m/S 743 mmHg 67%
    01:00 +34°C° 0 mm 7 m/S 743 mmHg 69%
    02:00 +34°C° 0 mm 7 m/S 742 mmHg 71%
    03:00 +33°C° 0 mm 6 m/S 742 mmHg 72%
    04:00 +33°C° 0.1 mm 6 m/S 742 mmHg 74%
    05:00 +33°C° 0.1 mm 6 m/S 742 mmHg 75%
    06:00 +33°C° 0.1 mm 5 m/S 742 mmHg 77%
    07:00 +34°C° 0.1 mm 6 m/S 743 mmHg 74%
    08:00 +35°C° 0.1 mm 6 m/S 743 mmHg 70%
    09:00 +36°C° 0.1 mm 6 m/S 744 mmHg 67%
    10:00 +38°C° 0.1 mm 6 m/S 744 mmHg 65%
    11:00 +38°C° 0.1 mm 6 m/S 744 mmHg 62%
    12:00 +39°C° 0.1 mm 7 m/S 744 mmHg 60%
    13:00 +39°C° 0.2 mm 7 m/S 743 mmHg 59%
    14:00 +40°C° 0.2 mm 7 m/S 743 mmHg 58%
    15:00 +40°C° 0.2 mm 7 m/S 742 mmHg 57%
    16:00 +39°C° 0.1 mm 7 m/S 742 mmHg 61%
    17:00 +38°C° 0.1 mm 7 m/S 742 mmHg 65%
    18:00 +36°C° 0.1 mm 7 m/S 741 mmHg 69%
    19:00 +35°C° 1.3 mm 7 m/S 742 mmHg 74%
    20:00 +34°C° 1.3 mm 7 m/S 743 mmHg 79%
    21:00 +32°C° 1.3 mm 6 m/S 743 mmHg 83%
    22:00 +32°C° 0.9 mm 6 m/S 743 mmHg 84%
    23:00 +32°C° 0.9 mm 6 m/S 744 mmHg 85%

    30 Juni, Sonntag

    Zeit Temperatur Niederschläge Wind Luftdruck Luftfeuchtigkeit
    00:00 +32°C° 0.9 mm 6 m/S 744 mmHg 85%
    01:00 +32°C° 0.3 mm 5 m/S 743 mmHg 83%
    02:00 +32°C° 0.3 mm 5 m/S 743 mmHg 81%
    03:00 +33°C° 0.3 mm 4 m/S 743 mmHg 78%
    04:00 +32°C° 0.4 mm 5 m/S 743 mmHg 81%
    05:00 +32°C° 0.4 mm 5 m/S 743 mmHg 83%
    06:00 +32°C° 0.4 mm 6 m/S 743 mmHg 86%
    07:00 +32°C° 0.1 mm 6 m/S 744 mmHg 83%
    08:00 +33°C° 0.1 mm 6 m/S 744 mmHg 80%
    09:00 +34°C° 0.1 mm 5 m/S 744 mmHg 76%
    10:00 +34°C° 0 mm 5 m/S 744 mmHg 73%
    11:00 +35°C° 0 mm 5 m/S 744 mmHg 71%
    12:00 +36°C° 0 mm 5 m/S 744 mmHg 68%
    13:00 +37°C° 0.7 mm 5 m/S 743 mmHg 64%
    14:00 +37°C° 0.7 mm 4 m/S 742 mmHg 61%
    15:00 +38°C° 0.7 mm 4 m/S 742 mmHg 58%
    16:00 +37°C° 0.1 mm 4 m/S 742 mmHg 60%
    17:00 +37°C° 0.1 mm 4 m/S 741 mmHg 63%
    18:00 +36°C° 0.1 mm 4 m/S 741 mmHg 65%
    19:00 +36°C° 0.1 mm 4 m/S 742 mmHg 68%
    20:00 +35°C° 0.1 mm 4 m/S 742 mmHg 70%
    21:00 +34°C° 0.1 mm 4 m/S 743 mmHg 73%
    22:00 +34°C° 0.3 mm 4 m/S 743 mmHg 74%
    23:00 +34°C° 0.3 mm 3 m/S 743 mmHg 75%
    Mehr zeigen